Radiation Dose at Monitoring Post of Fukushima Daini Nuclear Power Station
Date,Time,MP-1(microSv/h),MP-2(microSv/h),MP-3(microSv/h),MP-4(microSv/h),MP-5(microSv/h),MP-6(microSv/h),MP-7(microSv/h),Wind Direction,Wind Velocity(m/s),Rain
2023/03/14,00:00,0.154,0.137,0.215,0.211,0.213,0.122,0.078,north,6.0,No
2023/03/14,00:10,0.154,0.138,0.216,0.209,0.212,0.123,0.077,north-northwest,6.5,No
2023/03/14,00:20,0.154,0.137,0.216,0.211,0.213,0.122,0.077,north,5.4,No
2023/03/14,00:30,0.154,0.138,0.216,0.212,0.212,0.122,0.077,north,5.9,No
2023/03/14,00:40,0.154,0.138,0.216,0.211,0.212,0.122,0.077,north,5.9,No
2023/03/14,00:50,0.153,0.137,0.215,0.210,0.212,0.122,0.076,north,5.9,No
2023/03/14,01:00,0.153,0.138,0.215,0.210,0.212,0.122,0.077,north,6.0,No
2023/03/14,01:10,0.152,0.137,0.216,0.211,0.213,0.122,0.078,north-northwest,7.0,No
2023/03/14,01:20,0.154,0.138,0.215,0.210,0.212,0.122,0.077,north,7.4,No
2023/03/14,01:30,0.154,0.138,0.215,0.210,0.211,0.122,0.077,north,5.7,No
2023/03/14,01:40,0.154,0.137,0.215,0.210,0.211,0.122,0.077,north-northwest,5.6,No
2023/03/14,01:50,0.153,0.138,0.216,0.211,0.212,0.122,0.077,north-northwest,6.2,No
2023/03/14,02:00,0.154,0.138,0.214,0.210,0.212,0.122,0.077,north-northwest,5.9,No
2023/03/14,02:10,0.154,0.137,0.216,0.209,0.212,0.122,0.077,north-northwest,6.2,No
2023/03/14,02:20,0.153,0.137,0.216,0.211,0.211,0.122,0.077,north-northwest,5.3,No
2023/03/14,02:30,0.153,0.137,0.216,0.211,0.213,0.122,0.077,north-northwest,5.4,No
2023/03/14,02:40,0.154,0.137,0.216,0.210,0.212,0.122,0.077,north-northwest,5.6,Yes
2023/03/14,02:50,0.154,0.138,0.216,0.210,0.212,0.122,0.077,north-northwest,6.2,Yes
2023/03/14,03:00,0.153,0.138,0.215,0.210,0.213,0.122,0.077,north-northwest,5.7,Yes
2023/03/14,03:10,0.154,0.137,0.215,0.211,0.211,0.122,0.077,north-northwest,6.3,Yes
2023/03/14,03:20,0.154,0.138,0.215,0.209,0.212,0.122,0.077,north-northwest,5.9,Yes
2023/03/14,03:30,0.154,0.138,0.216,0.211,0.212,0.122,0.077,north-northwest,6.0,No
2023/03/14,03:40,0.153,0.138,0.216,0.211,0.212,0.122,0.076,north-northwest,5.8,No
2023/03/14,03:50,0.153,0.138,0.215,0.210,0.211,0.122,0.077,north-northwest,6.0,No
2023/03/14,04:00,0.154,0.137,0.216,0.211,0.212,0.121,0.077,north-northwest,5.8,No
2023/03/14,04:10,0.154,0.139,0.216,0.211,0.212,0.123,0.077,north-northwest,5.4,No
2023/03/14,04:20,0.154,0.139,0.215,0.210,0.212,0.122,0.077,north-northwest,5.5,No
2023/03/14,04:30,0.154,0.137,0.215,0.211,0.211,0.121,0.077,north-northwest,4.6,No
2023/03/14,04:40,0.153,0.138,0.216,0.210,0.213,0.122,0.077,north-northwest,4.6,No
2023/03/14,04:50,0.153,0.137,0.215,0.210,0.213,0.122,0.077,north-northwest,4.6,No
2023/03/14,05:00,0.154,0.137,0.214,0.211,0.212,0.123,0.077,north-northwest,4.7,No
2023/03/14,05:10,0.154,0.137,0.216,0.210,0.212,0.122,0.077,north-northwest,4.6,Yes
2023/03/14,05:20,0.154,0.137,0.215,0.210,0.213,0.123,0.077,north-northwest,4.9,No
2023/03/14,05:30,0.154,0.137,0.215,0.211,0.211,0.122,0.077,north-northwest,5.1,No
2023/03/14,05:40,0.153,0.137,0.216,0.212,0.212,0.121,0.077,north-northwest,5.5,No
2023/03/14,05:50,0.153,0.137,0.216,0.210,0.212,0.121,0.077,north-northwest,5.4,No
2023/03/14,06:00,0.154,0.137,0.216,0.211,0.212,0.123,0.077,north-northwest,6.1,No
2023/03/14,06:10,0.153,0.137,0.215,0.211,0.212,0.123,0.077,north-northwest,5.1,No
2023/03/14,06:20,0.153,0.137,0.214,0.212,0.213,0.122,0.077,north-northwest,5.6,No
2023/03/14,06:30,0.154,0.139,0.215,0.212,0.212,0.122,0.077,north-northwest,5.4,No
2023/03/14,06:40,0.153,0.137,0.217,0.211,0.211,0.122,0.077,north-northwest,4.7,Yes
2023/03/14,06:50,0.153,0.138,0.215,0.211,0.212,0.122,0.077,northwest,4.9,No
2023/03/14,07:00,0.154,0.138,0.215,0.210,0.211,0.122,0.077,northwest,4.7,Yes
2023/03/14,07:10,0.154,0.137,0.216,0.210,0.212,0.122,0.078,north-northwest,4.6,No
2023/03/14,07:20,0.153,0.137,0.216,0.211,0.212,0.122,0.077,north-northwest,4.6,No
2023/03/14,07:30,0.153,0.137,0.215,0.211,0.213,0.123,0.077,north-northwest,5.0,No
2023/03/14,07:40,0.154,0.138,0.215,0.211,0.212,0.123,0.078,north-northwest,4.1,No
2023/03/14,07:50,0.154,0.137,0.216,0.210,0.212,0.122,0.077,north-northwest,3.9,No
2023/03/14,08:00,0.153,0.137,0.215,0.211,0.212,0.122,0.078,north-northwest,4.2,No
2023/03/14,08:10,0.154,0.139,0.216,0.211,0.211,0.122,0.078,north-northwest,4.6,No
2023/03/14,08:20,0.155,0.137,0.215,0.210,0.212,0.124,0.078,north-northwest,3.7,No
2023/03/14,08:30,0.154,0.138,0.215,0.210,0.212,0.122,0.077,north-northwest,2.8,No
2023/03/14,08:40,0.155,0.138,0.215,0.212,0.212,0.122,0.077,north-northwest,2.9,No
2023/03/14,08:50,0.154,0.137,0.214,0.210,0.212,0.122,0.077,north-northwest,2.7,No
2023/03/14,09:00,0.154,0.137,0.214,0.210,0.211,0.122,0.077,north-northwest,2.9,No
2023/03/14,09:10,0.153,0.138,0.216,0.211,0.212,0.122,0.077,north-northwest,4.6,No
2023/03/14,09:20,0.155,0.138,0.215,0.211,0.212,0.122,0.077,north-northwest,4.9,No
2023/03/14,09:30,0.153,0.137,0.216,0.210,0.213,0.123,0.077,north,3.5,No
2023/03/14,09:40,0.154,0.137,0.216,0.211,0.212,0.122,0.077,north,3.5,No
2023/03/14,09:50,0.154,0.138,0.215,0.211,0.212,0.122,0.077,north,5.2,No
2023/03/14,10:00,0.152,0.137,0.217,0.210,0.212,0.122,0.077,north-northeast,5.8,No
2023/03/14,10:10,0.154,0.138,0.215,0.210,0.212,0.122,0.077,north,5.4,No
2023/03/14,10:20,0.154,0.138,0.215,0.210,0.212,0.122,0.077,north-northeast,5.7,No
2023/03/14,10:30,0.153,0.137,0.216,0.211,0.213,0.123,0.077,north-northeast,4.9,No
2023/03/14,10:40,0.153,0.137,0.215,0.211,0.212,0.122,0.077,north-northeast,6.1,No
2023/03/14,10:50,0.154,0.138,0.216,0.211,0.213,0.122,0.077,north-northeast,5.2,No
2023/03/14,11:00,0.153,0.138,0.216,0.212,0.212,0.121,0.076,northeast,4.4,No
2023/03/14,11:10,0.154,0.138,0.216,0.210,0.212,0.122,0.077,north-northeast,6.1,No
2023/03/14,11:20,0.153,0.137,0.215,0.211,0.213,0.121,0.077,northeast,5.5,No
2023/03/14,11:30,0.154,0.137,0.217,0.210,0.213,0.123,0.077,northeast,4.3,No
2023/03/14,11:40,0.154,0.137,0.215,0.211,0.213,0.122,0.077,north-northeast,5.4,No
2023/03/14,11:50,0.152,0.137,0.216,0.210,0.213,0.122,0.077,north-northeast,4.1,No
2023/03/14,12:00,0.154,0.137,0.216,0.212,0.212,0.123,0.077,northeast,4.4,No
2023/03/14,12:10,0.152,0.137,0.217,0.211,0.215,0.122,0.078,north-northeast,4.5,No
2023/03/14,12:20,0.154,0.137,0.215,0.210,0.211,0.122,0.077,north-northeast,4.0,No
2023/03/14,12:30,0.154,0.138,0.216,0.211,0.213,0.123,0.077,north-northeast,3.6,No
2023/03/14,12:40,0.154,0.138,0.216,0.210,0.213,0.122,0.077,north-northeast,5.0,No
2023/03/14,12:50,0.153,0.138,0.217,0.212,0.213,0.122,0.077,northeast,4.7,No
2023/03/14,13:00,0.153,0.138,0.216,0.210,0.213,0.123,0.077,north-northeast,5.3,No
2023/03/14,13:10,0.153,0.138,0.216,0.212,0.213,0.123,0.078,north-northeast,3.3,No
2023/03/14,13:20,0.153,0.138,0.216,0.211,0.214,0.123,0.078,northeast,5.6,No
2023/03/14,13:30,0.153,0.138,0.217,0.213,0.212,0.123,0.077,north-northeast,4.9,No
2023/03/14,13:40,0.154,0.138,0.217,0.211,0.214,0.122,0.077,north-northeast,3.9,No
2023/03/14,13:50,0.155,0.136,0.216,0.212,0.212,0.123,0.079,north-northeast,4.8,No
2023/03/14,14:00,0.154,0.137,0.216,0.212,0.213,0.122,0.077,north-northeast,4.2,No
2023/03/14,14:10,0.154,0.138,0.218,0.212,0.212,0.124,0.077,north-northeast,4.8,No
2023/03/14,14:20,0.153,0.138,0.216,0.212,0.213,0.122,0.077,north-northeast,5.3,No
2023/03/14,14:30,0.154,0.137,0.217,0.211,0.213,0.122,0.078,north-northeast,3.6,No
2023/03/14,14:40,0.154,0.138,0.217,0.212,0.213,0.123,0.078,north-northeast,4.3,No
2023/03/14,14:50,0.154,0.137,0.216,0.211,0.214,0.123,0.077,north-northeast,4.5,No
2023/03/14,15:00,0.153,0.137,0.217,0.211,0.213,0.122,0.077,north-northeast,3.7,No
2023/03/14,15:10,-,-,-,-,-,-,-,-,-,-
2023/03/14,15:20,0.155,0.137,0.218,0.211,0.213,0.123,0.078,north,3.8,No
2023/03/14,15:30,0.153,0.138,0.218,0.213,0.215,0.122,0.078,north,4.0,No
2023/03/14,15:40,0.153,0.140,0.218,0.212,0.215,0.122,0.077,north,4.0,No
2023/03/14,15:50,0.153,0.139,0.217,0.213,0.214,0.123,0.078,north-northeast,4.5,No
2023/03/14,16:00,0.154,0.140,0.217,0.213,0.214,0.122,0.077,north-northeast,4.9,No
2023/03/14,16:10,0.155,0.139,0.218,0.213,0.215,0.123,0.077,north,4.4,No
2023/03/14,16:20,0.154,0.138,0.218,0.212,0.213,0.122,0.077,north,4.4,No
2023/03/14,16:30,0.154,0.138,0.218,0.212,0.214,0.123,0.077,north-northeast,4.2,No
2023/03/14,16:40,0.154,0.139,0.216,0.214,0.214,0.123,0.077,north,4.0,No
2023/03/14,16:50,0.154,0.138,0.218,0.212,0.213,0.124,0.077,north-northeast,3.8,No
2023/03/14,17:00,0.154,0.138,0.218,0.214,0.213,0.123,0.078,north,2.8,No
2023/03/14,17:10,0.155,0.139,0.218,0.213,0.213,0.124,0.078,north-northwest,2.8,No
2023/03/14,17:20,0.154,0.138,0.217,0.212,0.213,0.124,0.078,north-northwest,3.3,No
2023/03/14,17:30,0.154,0.139,0.217,0.213,0.213,0.123,0.077,north-northwest,4.4,No
2023/03/14,17:40,0.154,0.138,0.218,0.212,0.213,0.123,0.077,north-northwest,3.5,No
2023/03/14,17:50,0.153,0.140,0.218,0.212,0.215,0.123,0.078,north-northwest,2.9,No
2023/03/14,18:00,0.155,0.138,0.217,0.213,0.212,0.123,0.078,northwest,3.1,No
2023/03/14,18:10,0.154,0.139,0.217,0.212,0.215,0.122,0.077,northwest,2.0,No
2023/03/14,18:20,0.154,0.140,0.217,0.212,0.212,0.123,0.077,north-northwest,2.2,No
2023/03/14,18:30,0.154,0.139,0.218,0.212,0.214,0.123,0.078,north-northwest,2.2,No
2023/03/14,18:40,0.155,0.138,0.217,0.213,0.213,0.123,0.077,northwest,2.3,No
2023/03/14,18:50,0.154,0.139,0.218,0.212,0.214,0.122,0.078,west-northwest,2.4,No
2023/03/14,19:00,0.154,0.139,0.218,0.213,0.214,0.122,0.078,west-northwest,2.7,No
2023/03/14,19:10,0.155,0.140,0.218,0.212,0.213,0.122,0.078,west-northwest,2.4,No
2023/03/14,19:20,0.155,0.138,0.218,0.214,0.213,0.123,0.077,west-northwest,2.3,No
2023/03/14,19:30,0.154,0.139,0.218,0.213,0.214,0.122,0.078,northwest,2.0,No
2023/03/14,19:40,0.155,0.140,0.218,0.213,0.213,0.123,0.078,northwest,2.3,No
2023/03/14,19:50,0.155,0.139,0.218,0.213,0.213,0.123,0.078,northwest,2.0,No
2023/03/14,20:00,0.154,0.138,0.218,0.213,0.213,0.123,0.077,west-northwest,1.5,No
2023/03/14,20:10,0.155,0.138,0.218,0.213,0.213,0.123,0.077,northwest,2.0,No
2023/03/14,20:20,0.155,0.138,0.218,0.214,0.213,0.123,0.077,north-northwest,2.3,No
2023/03/14,20:30,-,-,-,-,-,-,-,-,-,-
2023/03/14,20:40,0.155,0.139,0.217,0.212,0.212,0.123,0.078,west-northwest,2.0,No
2023/03/14,20:50,0.155,0.139,0.218,0.213,0.214,0.124,0.078,northwest,2.0,No
2023/03/14,21:00,0.154,0.139,0.218,0.212,0.213,0.123,0.078,west-northwest,2.1,No
2023/03/14,21:10,0.155,0.138,0.218,0.213,0.213,0.123,0.077,northwest,1.9,No
2023/03/14,21:20,0.155,0.138,0.217,0.213,0.214,0.123,0.078,northwest,2.8,No
2023/03/14,21:30,0.155,0.139,0.217,0.213,0.213,0.124,0.078,west-northwest,2.5,No
2023/03/14,21:40,0.155,0.139,0.217,0.214,0.214,0.123,0.078,northwest,2.4,No
2023/03/14,21:50,0.154,0.139,0.218,0.214,0.213,0.123,0.078,northwest,2.8,No
2023/03/14,22:00,0.154,0.137,0.217,0.213,0.215,0.124,0.077,north-northwest,3.0,No
2023/03/14,22:10,0.154,0.140,0.218,0.213,0.213,0.124,0.078,north-northwest,3.3,No
2023/03/14,22:20,0.154,0.139,0.218,0.213,0.213,0.124,0.078,north-northwest,3.4,No
2023/03/14,22:30,0.155,0.138,0.217,0.213,0.214,0.123,0.078,north-northwest,3.3,No
2023/03/14,22:40,0.155,0.138,0.219,0.213,0.214,0.123,0.078,north-northwest,3.4,No
2023/03/14,22:50,0.155,0.138,0.217,0.213,0.213,0.123,0.077,north,3.8,No
2023/03/14,23:00,0.154,0.138,0.217,0.211,0.212,0.124,0.078,north-northwest,4.2,No
2023/03/14,23:10,0.155,0.140,0.217,0.213,0.214,0.123,0.078,north-northwest,5.2,No
2023/03/14,23:20,0.155,0.139,0.217,0.213,0.213,0.123,0.078,north-northwest,4.7,No
2023/03/14,23:30,0.155,0.139,0.219,0.213,0.213,0.123,0.078,north-northwest,5.6,No
2023/03/14,23:40,0.155,0.139,0.218,0.213,0.213,0.123,0.077,north-northwest,5.2,No
2023/03/14,23:50,0.155,0.139,0.218,0.214,0.213,0.123,0.078,north-northwest,5.5,No
